#timestamp,LO_Frequency,Hit,StdDev 
1576699215.7,286046997.4,N
1576699235.5,286046997.1,N
1576699255.4,286046996.6,N
1576699275.2,286046999.0,N
1576699295.1,286047001.1,N
1576699296.0,286047001.1,N
1576699315.8,286046998.6,N
1576699335.6,286046998.5,N
1576699355.5,286047000.4,N
1576699375.3,286047002.2,N
1576699395.1,286047001.8,N
1576699415.9,286047004.2,N
1576699435.7,286047001.9,N
1576699455.6,286047002.4,N
1576699475.4,286047000.6,N
1576699495.2,286046998.6,N
1576699515.1,286047001.1,N
1576699516.0,286047001.1,N
1576699535.8,286046998.8,N
1576699555.7,286047001.2,N
1576699575.5,286046999.6,N
1576699595.3,286046996.5,N
1576699615.2,286046999.2,N
1576699635.9,286046998.7,N
1576699655.7,286046998.8,N
1576699675.6,286046996.5,N
1576699695.4,286046998.5,N
1576699715.2,286047000.8,N
1576699735.1,286046998.1,N
1576699736.0,286046998.1,N
1576699755.8,286046998.4,N
1576699775.7,286046999.3,N
1576699795.5,286046997.5,N
1576699815.3,286046997.4,N
1576699835.2,286046997.5,N
1576699855.0,286046998.5,N
1576699855.9,286046998.5,N
1576699875.8,286046999.2,N
1576699895.6,286046997.0,N
1576699915.4,286046998.0,N
1576699935.3,286046994.9,N
1576699955.1,286046995.1,N
1576699975.8,286046995.0,N
1576699995.7,286046995.1,N
1576700015.5,286046994.9,N
1576700035.4,286046997.6,N
1576700055.2,286046997.6,N
1576700075.0,286046997.8,N
1576700075.9,286046997.8,N
1576700095.8,286046997.7,N
1576700115.6,286046997.9,N
1576700135.5,286046995.1,Y
1576700155.3,286046998.7,P
1576700175.1,286046997.0,P
1576700195.9,286046999.4,N
1576700215.7,286046999.1,N
1576700235.6,286046998.7,N
1576700255.4,286047000.8,N
1576700275.2,286047000.7,N
1576700295.1,286046998.2,N
1576700296.0,286046998.2,N
1576700315.8,286046998.8,N
1576700335.6,286047001.2,N
1576700355.5,286047000.7,N
1576700375.3,286047000.7,N
1576700395.2,286047000.4,N
1576700415.9,286047002.4,N
1576700435.7,286047003.5,N
1576700455.6,286047004.1,N
1576700475.4,286047001.3,N
1576700495.2,286047001.8,N
1576700515.1,286047003.8,N
1576700516.0,286047003.8,N
1576700535.8,286047004.4,N
1576700555.7,286047004.4,N
1576700575.5,286047001.7,N
1576700595.3,286047004.2,N
1576700615.2,286047002.1,N
1576700635.9,286047002.8,N
1576700655.7,286047000.3,N
1576700675.6,286047002.3,N
1576700695.4,286047001.9,N
1576700715.3,286047011.9,Y
1576700735.1,286047001.5,P
1576700736.0,286047001.5,P
1576700755.8,286047000.5,P
1576700775.7,286047000.0,N
1576700795.5,286047000.2,N
1576700815.4,286047000.7,N
1576700835.2,286047001.2,N
1576700855.0,286046996.9,Y
1576700855.9,286046996.9,P
1576700875.8,286046997.7,N
1576700895.6,286046997.6,N
1576700915.4,286046996.8,N
1576700935.3,286046997.3,N
1576700955.1,286046997.5,N
1576700975.9,286046996.8,N
1576700995.7,286046995.0,Y
1576701015.5,286046998.5,P
1576701035.4,286046998.5,P
1576701055.2,286047001.1,N
1576701075.0,286047001.0,N
1576701075.9,286047001.0,N
1576701095.8,286047000.5,N
1576701115.6,286047000.0,N
1576701135.5,286047001.0,N
1576701155.3,286046998.9,N
1576701175.1,286046999.3,N
1576701195.9,286046996.9,N
1576701215.7,286046996.6,N
1576701235.5,286046998.8,N
1576701255.4,286047000.8,N
1576701275.2,286046996.6,N
1576701295.1,286046999.5,N
1576701296.0,286046999.5,N
1576701315.8,286046996.8,N
1576701335.6,286046996.6,N
1576701355.5,286046996.9,N
1576701375.3,286046996.7,N
1576701395.1,286046999.5,N
1576701415.9,286046999.3,N
1576701435.7,286046998.2,N
1576701455.6,286047000.2,N
1576701475.4,286047000.7,N
1576701495.2,286046998.1,N
1576701515.1,286046999.3,N
1576701516.0,286046999.3,N
1576701535.8,286046999.6,N
1576701555.6,286046996.6,N
1576701575.5,286046999.0,N
1576701595.3,286046998.7,N
1576701615.2,286046999.6,N
1576701635.9,286046999.6,N
1576701655.7,286046997.8,N
1576701675.6,286046994.9,Y
1576701695.4,286046998.9,P
1576701715.2,286046999.0,P
1576701735.1,286047000.2,N
1576701736.0,286047000.2,N
1576701755.8,286047000.2,N
1576701775.7,286046999.9,N
1576701795.5,286047002.7,Y
1576701815.3,286047002.7,P
1576701835.2,286047002.3,N
1576701855.0,286047002.4,N
1576701855.9,286047002.4,N
1576701875.8,286047002.7,N
1576701895.6,286047002.4,N
1576701915.4,286047000.4,N
1576701935.3,286047000.9,N
1576701955.1,286046998.9,N
1576701975.8,286046998.7,N
1576701995.7,286046998.3,N
1576702015.5,286046999.1,N
1576702035.3,286046998.5,N
1576702055.2,286046998.3,N
1576702075.0,286046999.8,N
1576702075.9,286046999.8,N
1576702095.8,286047000.1,N
1576702115.6,286047000.0,N
1576702135.4,286047001.5,N
1576702155.3,286047004.4,N
1576702175.1,286047002.1,N
1576702195.9,286047001.8,N
1576702215.7,286047001.5,N
1576702235.5,286047002.0,N
1576702255.4,286047002.5,N
1576702275.2,286047002.6,N
1576702295.0,286047002.6,N
1576702295.9,286047002.6,N
1576702315.8,286046999.9,N
1576702335.6,286047000.1,N
1576702355.5,286047000.7,N
1576702375.3,286047000.8,N
1576702395.1,286047000.7,N
1576702415.9,286047000.8,N
1576702435.7,286047002.8,N
1576702455.5,286047002.4,N
1576702475.4,286046999.9,N
1576702495.2,286047002.7,N
1576702515.1,286047000.5,N
1576702516.0,286047000.5,N
1576702535.8,286047002.3,N
1576702555.6,286047003.9,N
1576702575.5,286047002.0,N
1576702595.3,286047002.0,N
1576702615.1,286047002.1,N
1576702635.9,286047003.3,N
1576702655.7,286047003.9,Y
1576702675.6,286047000.2,P
1576702695.4,286047001.5,N
1576702715.2,286047001.9,N
1576702735.1,286047001.1,N
1576702736.0,286047001.1,N
1576702755.8,286046998.5,N
1576702775.7,286047001.0,N
1576702795.5,286047000.0,N
